Location: Fort Worth, Tx
(32.7431°N, 97.3695°W)
Time: 00:22:37
(UTC-04:00)

A-11 Canister half - Pass Details

Date: 20 March 2026
Orbit: 1523 x 1685 km, 47.3° (Epoch: 20 April)

Event Time Altitude Azimuth Distance (km) Brightness Sun altitude
Rises 07:57:09 0° 193° (SSW) 4,922 11.5 -8.4°
Reaches altitude 10° 08:00:53 10° 183° (S) 3,933 11.1 -7.6°
Maximum altitude 08:09:09 30° 127° (SE) 2,682 10.9 -5.9°
Drops below altitude 10° 08:17:15 10° 72° (ENE) 3,879 12.7 -4.2°
Sets 08:20:52 0° 62° (ENE) 4,846 13.0 -3.4°
